Theta_e
312 313 313 314 315 315 314 311 310 310 310 310 310 313 314 315 314 313 314 315 318 319 319 318 325 331 330 334 350 340 349 349 351 353 351 348 346 344 342 344 343 342 342 341 340
310 313 314 315 316 316 315 314 313 310 309 310 310 311 313 315 315 314 315 317 320 320 319 318 327 328 327 347 348 348 347 346 348 347 348 346 348 343 343 343 342 342 342 341 339
311 312 314 316 316 316 315 315 315 312 309 309 310 310 312 315 315 316 317 316 320 320 317 317 325 329 333 349 347 346 350 348 346 344 345 346 344 344 343 344 343 342 341 340 340
312 311 313 315 316 316 316 316 317 316 310 309 309 310 312 314 330 328 323 324 322 320 316 323 332 331 348 351 347 349 348 346 345 344 345 347 345 344 342 342 342 342 341 340 340
314 312 312 314 316 317 316 317 317 318 312 309 309 310 313 316 322 327 326 321 323 316 317 330 331 332 347 350 348 349 346 344 346 345 346 346 347 345 343 342 343 343 343 341 340
314 314 312 312 316 317 317 317 318 319 317 309 309 311 313 325 326 326 324 316 315 315 319 327 329 327 350 349 348 348 347 346 347 346 345 347 347 345 345 342 343 344 344 343 343
314 315 313 312 314 317 317 318 319 319 319 314 311 312 315 325 325 323 321 315 315 317 323 325 324 323 347 347 347 346 346 346 346 345 345 344 348 349 345 343 342 344 345 344 344
315 314 315 313 313 318 317 319 319 319 317 314 313 317 321 324 324 323 321 322 323 324 322 320 320 333 345 345 343 348 346 350 349 345 343 344 347 344 345 343 341 341 342 344 344
315 314 314 314 313 318 318 320 320 318 315 315 322 328 328 326 320 322 321 320 319 319 319 319 320 327 345 345 344 344 349 348 347 348 346 342 343 341 344 345 346 343 342 344 346
315 314 314 314 314 318 320 321 321 320 319 318 319 324 327 323 322 323 321 321 322 319 319 319 320 321 325 342 348 350 343 348 349 350 348 345 345 345 344 344 346 346 343 343 344
314 314 313 315 313 319 322 324 326 326 322 323 325 327 327 323 322 323 323 321 321 319 316 319 316 318 328 334 343 343 343 350 347 347 352 349 345 346 345 344 345 345 346 343 342
313 314 313 315 313 320 322 324 324 325 323 325 326 326 327 323 322 321 323 322 319 317 317 315 316 317 324 330 343 342 345 348 345 344 349 351 350 345 345 343 343 345 346 345 341
313 313 313 315 312 320 322 325 325 325 323 326 327 326 325 324 323 323 322 321 319 317 317 315 317 319 321 323 342 343 345 344 347 348 348 348 349 347 344 344 343 344 344 345 344
313 314 313 314 314 320 325 324 324 324 320 324 325 325 325 326 325 325 323 322 321 320 318 316 319 319 319 321 337 344 342 341 350 351 351 348 351 347 344 344 343 343 343 344 346
313 314 313 314 322 325 324 324 324 324 330 329 324 325 326 325 324 323 323 322 321 323 323 323 322 323 322 324 326 330 341 342 349 347 350 351 350 344 343 345 343 343 342 342 346
314 314 313 315 318 323 324 324 324 323 331 325 324 324 324 324 325 323 323 324 324 324 323 322 324 323 324 325 325 332 342 339 345 340 345 344 350 345 346 346 343 342 342 342 344
314 313 313 315 315 324 323 325 322 326 327 325 323 323 322 322 323 323 322 322 321 322 321 322 323 322 325 323 321 322 320 323 326 327 338 339 351 346 349 348 346 341 342 343 343
314 313 314 314 318 323 324 321 328 330 332 327 323 323 323 323 322 323 322 321 320 320 319 322 322 322 322 321 321 323 320 322 328 329 330 338 344 347 343 346 346 345 342 342 343
315 315 315 314 319 323 322 324 326 330 328 324 323 325 323 326 327 325 321 321 322 319 320 321 322 322 322 322 320 320 319 318 321 322 330 337 346 344 341 338 341 344 344 342 342
315 322 321 314 316 317 319 322 324 327 326 323 325 326 327 326 328 327 327 327 325 323 320 321 320 322 323 322 321 319 318 318 320 335 340 345 346 345 341 343 343 342 344 343 342
316 324 324 321 319 321 319 320 324 326 326 324 325 324 325 328 328 328 329 326 325 324 322 320 318 320 324 323 320 325 330 325 323 330 334 339 342 337 338 339 339 340 347 344 342
315 319 326 321 320 320 319 323 325 325 325 323 325 324 325 328 328 329 329 326 326 324 327 325 317 325 327 329 330 330 333 328 332 338 333 335 340 336 337 338 337 344 348 345 342
314 317 323 320 318 317 319 322 324 324 324 322 325 324 322 323 326 327 331 326 327 326 325 323 320 323 326 327 327 329 330 329 326 328 333 336 335 334 334 335 342 346 345 345 344
315 319 325 322 320 319 319 320 321 324 325 324 323 323 322 322 322 325 328 328 327 326 325 323 322 324 326 330 328 330 330 329 328 333 334 334 338 336 339 344 344 344 345 344 344
315 319 324 323 324 321 324 325 328 323 325 325 323 324 323 322 326 327 325 323 325 325 326 320 328 328 329 331 332 333 332 331 330 331 332 333 335 335 337 343 343 344 342 343 345
321 323 323 324 324 324 325 328 325 325 323 322 323 323 322 322 324 322 321 321 326 326 326 321 331 330 333 332 332 333 331 333 332 331 332 333 336 332 336 342 341 343 338 339 341
317 314 323 323 321 321 323 322 324 325 329 327 323 322 323 321 322 323 323 321 319 318 318 322 328 323 329 332 332 328 333 333 333 335 334 335 334 335 332 335 340 342 343 341 338
Wind_Speed
9 10 10 10 10 10 10 8 7 6 5 6 6 7 8 9 10 11 13 6 3 2 4 3 6 2 7 3 10 15 3 3 4 5 8 19 5 14 20 31 12 6 31 36 29
9 9 9 9 10 10 11 10 9 8 7 6 5 6 7 8 10 14 6 8 7 2 5 5 3 5 8 2 3 5 3 6 3 7 5 19 10 20 19 21 25 30 27 34 33
10 9 8 8 9 10 11 11 11 10 8 7 5 5 5 6 7 3 3 9 8 5 6 6 5 9 1 8 3 3 4 10 6 7 10 11 11 9 24 16 37 36 37 39 33
10 9 8 8 8 10 11 12 12 11 9 7 5 4 3 2 1 3 7 5 6 6 6 3 2 3 4 5 4 5 6 10 14 7 7 8 2 13 17 18 37 41 47 43 28
10 10 9 8 8 10 11 12 13 10 8 6 4 3 2 3 4 5 10 4 7 8 6 5 5 2 4 9 9 8 5 8 14 13 11 11 11 9 17 25 36 36 44 40 28
11 10 9 8 8 9 11 13 12 9 7 6 3 2 1 3 5 4 12 4 7 8 8 8 6 14 11 7 1 10 12 14 8 8 2 5 6 8 8 19 36 35 36 41 27
12 11 10 9 8 10 12 13 11 8 6 4 3 2 5 3 3 5 9 0 4 4 4 4 14 16 12 7 13 20 7 6 11 6 5 1 5 5 6 15 34 35 36 35 32
13 12 10 10 8 9 12 12 9 6 4 2 1 3 5 5 4 5 4 6 3 2 8 9 12 4 12 22 7 3 4 5 6 13 9 9 3 1 3 13 18 30 29 36 32
14 13 11 10 8 8 9 9 7 5 3 1 2 5 6 4 7 8 9 2 2 3 6 7 8 4 20 7 4 3 3 3 5 18 5 4 4 5 4 8 4 8 30 32 34
15 13 12 10 8 6 7 7 6 6 5 6 9 7 5 1 6 4 5 5 4 6 4 2 1 3 2 4 5 6 4 4 4 6 2 5 5 2 5 3 3 3 10 28 34
16 14 11 9 7 3 4 8 9 2 8 13 18 14 14 6 7 6 4 4 4 2 1 3 4 6 9 8 5 6 3 5 2 4 5 6 5 7 7 10 8 9 1 22 23
17 14 11 8 7 4 5 6 5 8 10 22 20 22 15 9 4 6 10 4 3 5 2 5 6 13 8 8 11 9 7 5 3 2 2 3 7 6 10 9 17 10 8 7 16
18 14 11 7 5 5 6 5 10 12 5 17 13 13 10 13 8 12 14 6 4 2 4 7 10 7 12 13 12 8 10 5 3 5 5 3 5 5 5 11 21 17 17 13 13
20 15 12 5 3 6 4 11 10 9 4 7 3 9 18 7 4 16 16 5 2 6 5 6 15 10 8 10 12 7 10 12 8 5 4 9 4 5 7 9 11 23 25 17 18
21 16 11 4 3 4 10 9 6 7 3 5 4 6 6 7 10 12 10 8 4 6 4 9 5 2 4 5 7 6 17 16 13 9 4 3 2 4 7 8 13 23 24 25 19
21 16 9 7 9 2 5 7 7 5 4 4 8 7 4 8 6 13 7 8 7 4 2 8 8 3 4 2 2 7 9 4 3 4 2 4 7 3 3 4 6 18 25 26 28
20 15 9 10 7 1 4 6 5 3 6 4 6 5 7 5 5 7 5 4 3 3 3 6 6 5 4 2 6 6 6 3 1 1 6 6 6 4 6 2 5 14 26 30 31
18 12 10 8 9 1 6 4 1 5 7 4 5 5 7 7 6 8 5 3 6 4 2 2 9 5 6 8 7 3 7 5 5 3 6 4 1 4 6 3 2 11 19 26 30
18 12 9 6 12 5 2 3 6 4 6 4 6 1 5 2 5 5 9 6 5 9 7 2 5 7 0 4 8 4 1 7 3 1 4 2 3 6 5 4 10 20 13 33 39
20 13 5 8 14 8 4 5 5 3 8 5 4 1 3 5 4 3 2 3 3 3 7 3 3 3 6 3 3 6 3 2 3 1 2 2 2 3 4 4 4 5 4 17 29
16 8 8 13 12 6 3 7 5 14 16 2 1 3 3 4 2 1 3 2 4 4 10 3 3 6 5 7 3 7 5 4 5 4 3 1 5 6 5 4 7 8 7 16 26
9 4 11 19 3 3 3 5 5 11 33 7 1 4 2 2 4 4 3 3 5 4 3 3 5 2 1 7 14 6 3 5 4 3 2 3 5 2 7 9 10 12 7 7 19
19 7 10 22 2 2 6 7 13 13 8 7 2 3 3 2 3 0 0 8 7 3 4 1 3 3 8 4 6 8 3 2 3 3 2 4 5 3 5 10 7 5 4 12 16
8 3 5 19 11 2 5 7 7 13 12 5 5 4 4 4 1 3 2 4 7 9 7 6 3 5 5 3 2 3 2 2 5 3 3 5 3 3 7 5 8 4 2 12 17
3 3 8 4 4 6 1 5 12 12 6 13 2 4 4 2 3 3 3 4 7 6 4 5 4 4 4 5 3 3 2 2 3 4 6 5 2 5 3 1 3 5 4 7 10
4 5 8 14 13 6 2 5 5 14 5 10 4 7 6 6 6 1 7 3 3 4 1 2 3 4 4 0 2 3 5 4 5 3 5 6 4 6 2 3 8 13 10 10 13
5 7 5 7 6 4 3 6 13 13 15 15 13 6 3 9 12 12 8 6 5 7 4 4 7 3 4 3 3 4 2 3 2 2 2 5 2 3 2 3 4 10 9 11 8
Wind_Direction
20 21 23 25 23 24 23 12 0 342 317 292 277 274 271 272 272 267 259 239 207 279 330 209 207 224 305 276 146 125 119 31 329 323 331 359 69 137 135 142 141 161 150 152 157
17 19 21 20 18 16 14 10 359 344 327 307 288 281 279 280 278 265 264 238 235 270 302 286 263 307 304 138 101 109 81 179 216 283 307 321 283 139 137 136 111 125 135 152 153
10 11 15 13 7 9 7 4 356 344 329 317 303 284 292 295 304 313 282 227 255 267 285 261 287 310 217 86 40 55 168 159 179 283 338 308 72 300 141 140 144 146 143 153 162
2 3 3 1 359 359 357 355 348 339 331 323 311 299 305 275 196 13 353 256 246 254 249 219 254 303 136 95 56 84 97 164 169 168 293 308 162 191 163 160 156 157 156 163 170
355 355 353 348 347 349 349 348 343 339 338 329 318 315 303 263 276 344 321 277 241 231 205 201 300 270 100 113 111 99 141 129 145 167 218 306 319 141 137 142 162 155 153 168 167
353 350 347 340 336 338 342 342 340 337 343 343 334 316 249 287 358 347 328 264 210 209 196 224 314 328 131 130 141 140 142 134 154 149 138 360 83 103 123 146 167 160 159 172 178
350 346 343 337 328 331 338 342 342 339 336 340 343 296 244 237 324 327 344 267 201 180 195 301 319 307 128 123 117 135 118 151 176 165 148 284 317 122 106 191 162 168 169 177 177
348 344 341 333 326 329 338 345 344 347 342 342 351 321 260 289 249 276 317 96 97 305 309 322 323 346 98 119 73 103 149 179 187 183 184 180 222 193 98 164 173 162 161 166 186
347 344 337 330 323 326 336 348 350 354 41 32 328 332 288 278 274 209 230 251 0 320 283 292 319 72 129 104 47 359 260 209 184 200 139 174 196 202 186 117 115 181 174 170 178
346 343 335 326 317 323 337 343 330 314 302 293 269 308 240 226 156 174 199 250 278 267 293 241 85 62 35 100 186 174 214 260 221 170 274 153 228 173 209 213 116 61 135 171 183
348 341 334 324 309 298 339 350 349 319 282 262 281 264 293 162 174 182 203 164 216 226 194 303 73 217 226 197 185 145 217 207 213 165 162 204 182 209 213 221 212 179 165 175 176
346 338 331 317 291 259 330 349 353 323 311 304 294 272 256 193 154 208 198 210 207 215 123 4 236 246 233 208 151 159 193 227 322 159 165 187 238 216 179 225 221 200 213 187 180
343 335 329 311 264 232 255 340 337 322 295 300 258 246 212 208 202 213 198 205 219 239 216 177 238 226 236 264 174 196 184 174 229 146 200 77 282 195 216 224 225 216 212 198 215
342 334 328 303 206 218 309 17 355 347 43 277 222 248 220 204 256 219 204 186 227 221 235 220 258 229 254 256 177 178 196 196 172 140 214 152 271 234 192 209 208 228 217 211 222
340 330 321 254 203 217 321 343 337 327 9 212 205 204 188 175 159 199 193 191 234 275 81 263 267 285 258 214 154 213 165 191 185 176 115 214 10 281 141 229 221 219 223 216 216
339 324 309 268 225 322 326 319 333 49 261 219 163 197 157 187 208 162 180 220 273 278 269 242 271 204 230 302 129 141 189 108 114 75 351 213 180 297 195 231 222 223 233 221 217
339 319 295 261 206 236 312 339 44 147 314 182 203 175 185 217 180 172 187 187 168 59 320 329 286 273 239 353 343 74 68 360 14 108 227 220 133 236 277 171 244 223 215 221 222
338 317 291 252 185 207 320 55 99 259 264 246 169 185 171 167 215 194 145 236 254 123 53 218 318 209 185 184 195 139 143 159 212 206 245 261 182 278 296 17 312 360 230 217 223
339 319 293 195 181 192 357 88 211 236 294 13 1 58 313 179 126 183 192 214 238 167 170 120 295 332 240 157 132 274 169 186 150 109 82 281 9 282 307 40 40 2 228 212 219
341 328 246 163 176 195 79 241 252 260 325 44 55 26 331 185 156 118 231 236 93 99 172 185 2 298 289 131 240 149 181 38 16 181 190 296 307 248 297 317 332 20 307 222 216
338 332 138 158 154 152 183 237 284 292 313 106 57 333 8 5 185 13 204 342 73 30 62 70 89 296 19 11 12 16 10 19 107 92 150 151 274 222 230 294 297 302 312 220 212
360 333 166 169 136 183 193 222 306 314 313 278 199 211 110 45 17 36 95 107 59 73 66 327 125 45 189 113 89 85 73 107 102 304 111 143 261 276 222 242 271 303 325 197 216
335 286 191 189 174 250 290 287 281 286 290 261 179 88 69 75 39 127 190 178 138 93 134 333 16 24 348 11 9 66 22 63 128 82 232 150 259 329 323 291 8 331 8 164 191
328 342 311 214 240 100 4 295 290 295 305 203 153 124 56 354 119 267 270 203 158 131 144 106 95 142 184 202 182 55 113 147 115 119 185 232 253 358 356 32 48 42 90 175 203
290 274 4 322 326 327 153 274 294 287 265 318 125 158 185 219 300 228 93 45 79 180 124 103 111 119 149 144 132 188 214 129 153 193 165 226 209 233 249 311 122 110 97 119 146
323 358 345 301 294 320 278 263 266 289 244 293 144 212 208 166 174 69 106 55 145 349 63 41 181 143 160 110 55 263 236 201 223 221 261 260 245 257 291 283 95 98 135 126 124
301 312 270 276 312 329 243 359 322 343 313 262 225 195 213 176 141 123 103 139 164 167 192 143 139 122 215 325 320 323 205 169 241 80 192 207 275 241 266 354 51 97 112 126 136